Home   Weather   Bad Oldesloe   Past weeks

Flag for Germany Past Weather in Bad Oldesloe, Schleswig-Holstein, Germany — Yesterday and Last 2 Weeks

43 °F


Feels Like: 43 °F
Forecast: 41 / 51 °F
Wind: 2 mph from North

Location: Luebeck-Blankensee

Current Time: Oct 23, 2016 at 8:24:59 AM

Latest Report: Oct 23, 2016 at 7:50 AM

Visibility: 3 mi

Pressure: 29.98 "Hg

Humidity: 100%

Dew Point: 43 °F

Location of Bad OldesloeLocation

Past Weather in Bad Oldesloe — Graph


Bad Oldesloe Temperature Yesterday

Maximum temperature yesterday: 46 °F (at 10:50 AM)
Minimum temperature yesterday: 43 °F (at 6:50 AM)
Average temperature yesterday: 45 °F

High & Low Weather Summary for the Past Weeks

High59 °F (Oct 18, 3:50 PM)100% (Oct 9, 8:20 AM)30.27 "Hg (Oct 9, 8:20 AM)
Low43 °F (Oct 10, 6:50 AM)62% (Oct 8, 4:50 PM)29.86 "Hg (Oct 15, 6:50 AM)
Average48 °F89%30.10 "Hg
* Reported Oct 8 6:50 AM — Oct 23 6:50 AM, Bad Oldesloe, Weather by CustomWeather, © 2016

Note: Actual official high and low records may vary slightly from our data, if they occured in-between our weather recording intervals... More about our weather records


Bad Oldesloe Weather History for the Previous 24 Hours

Scroll right to see more
Time TempWeatherWind HumidityBarometerVisibility
6:50 AM
Sun, Oct 23
45 °FFog.1 mph100%29.98 "Hg2 mi
7:50 PM
Sat, Oct 22
45 °FPassing clouds.1 mph100%29.95 "HgN/A
7:20 PM45 °FPassing clouds.1 mph100%29.95 "HgN/A
6:50 PM45 °FPassing clouds.2 mph100%29.95 "HgN/A
6:20 PM45 °FPartly cloudy.3 mph100%29.95 "HgN/A
5:50 PM46 °FLight rain. Broken clouds.2 mph93%29.95 "HgN/A
5:20 PM46 °FLight rain. Broken clouds.2 mph93%29.95 "HgN/A
4:50 PM46 °FLight rain. Broken clouds.2 mph93%29.92 "HgN/A
4:20 PM46 °FLight rain. Broken clouds.2 mph93%29.95 "HgN/A
3:50 PM46 °FLight rain. Broken clouds.5 mph93%29.95 "HgN/A
3:20 PM46 °FLight rain. Broken clouds.2 mph93%29.95 "HgN/A
2:50 PM46 °FLight rain. Partly sunny.2 mph93%29.95 "HgN/A
2:20 PM46 °FLight rain. Broken clouds.2 mph100%29.95 "Hg5 mi
1:50 PM46 °FLight rain. Broken clouds.1 mph100%29.95 "Hg4 mi
1:20 PM46 °FFog.2 mph93%29.95 "Hg3 mi
12:50 PM46 °FLight rain. Fog.3 mph93%29.95 "Hg2 mi
12:20 PM46 °FLight rain. Broken clouds.2 mph93%29.95 "Hg3 mi
11:50 AM46 °FLight rain. Partly sunny.2 mph93%29.95 "Hg3 mi
11:20 AM46 °FLight rain. Partly sunny.1 mph87%29.95 "Hg4 mi
10:50 AM46 °FPartly sunny.1 mph87%29.95 "Hg5 mi
10:20 AM45 °FPartly sunny.1 mph93%29.95 "Hg4 mi
9:50 AM45 °FFog.1 mph100%29.95 "Hg3 mi
9:20 AM45 °FFog.2 mph100%29.95 "Hg3 mi
8:50 AM43 °FFog.3 mph100%29.95 "Hg2 mi
8:20 AM45 °FFog.2 mph100%29.95 "Hg2 mi
Weather by CustomWeather, © 2016

See weather overviewHow to use our weather pages